Weather History for Mount Ida, AR

Change the Weather History Date:

Wednesday, August 21, 2013

  Actual Average (KHOT) Record (KHOT)
Temperature  
Mean Temperature 76 °F -  
Max Temperature 91 °F 93 °F 104 °F (1993)
Min Temperature 62 °F 69 °F 58 °F (1961)
Cooling Degree Days 12    
Growing Degree Days 26 (Base 50)    
Moisture  
Dew Point 66 °F    
Average Humidity 79    
Maximum Humidity 100    
Minimum Humidity 40    
Precipitation  
Precipitation 0.00 in - - ()
Sea Level Pressure  
Sea Level Pressure 30.06 in    
Wind  
Wind Speed 0 mph (SSE)    
Max Wind Speed 5 mph    
Max Gust Speed -    
Visibility 6 miles    
Events      
Averages and records for this station are not official NWS values.
T = Trace of Precipitation, MM = Missing Value Source: NWS Daily Summary

Daily Weather History Graph

Daily Weather History Graph

Search for Another Location

Airport:

Trip Planner

Search our weather history database for the weather conditions in past years. The results will help you decide how hot, cold, wet, or windy it might be!

Date:

Astronomy

Aug. 21, 2013 Rise Set
Actual Time 6:39 AM CDT 7:54 PM CDT
Civil Twilight 6:13 AM CDT 8:20 PM CDT
Nautical Twilight 5:42 AM CDT 8:51 PM CDT
Astronomical Twilight 5:09 AM CDT 9:24 PM CDT
Moon 8:09 PM CDT 7:16 AM CDT
Length of Visible Light 14h 07m
Length of Day
13h 14m
Waxing Gibbous, 99% of the Moon is Illuminated
Aug 21
Waxing Gibbous
Aug 28
Last Quarter
Sep 5
New
Sep 12
First Quarter
Sep 19
Full

Hourly Weather History & Observations

Time (CDT) Temp. Heat Index Dew Point Humidity Pressure Visibility Wind Dir Wind Speed Gust Speed Precip Events Conditions
12:53 AM 68.0 °F - 66.9 °F 96% 30.04 in 4.0 mi Calm Calm - N/A   Clear
1:53 AM 66.9 °F - 64.9 °F 93% 30.03 in 4.0 mi Calm Calm - N/A   Clear
2:53 AM 66.0 °F - 64.9 °F 96% 30.03 in 5.0 mi Calm Calm - N/A   Clear
3:53 AM 64.9 °F - 64.0 °F 97% 30.03 in 4.0 mi Calm Calm - N/A   Clear
4:06 AM 64.4 °F - 64.4 °F 100% 30.06 in 2.5 mi Calm Calm - N/A   Clear
4:17 AM 64.4 °F - 64.4 °F 100% 30.07 in 1.0 mi Calm Calm - N/A   Clear
4:37 AM 64.4 °F - 64.4 °F 100% 30.07 in 3.0 mi Calm Calm - N/A   Clear
4:53 AM 64.9 °F - 64.0 °F 97% 30.04 in 3.0 mi Calm Calm - N/A   Clear
5:53 AM 63.0 °F - 63.0 °F 100% 30.05 in 3.0 mi Calm Calm - N/A   Clear
6:48 AM 62.6 °F - 62.6 °F 100% 30.10 in 2.0 mi Calm Calm - N/A   Clear
6:53 AM 63.0 °F - 62.1 °F 97% 30.07 in 2.0 mi Calm Calm - N/A   Clear
7:28 AM 64.4 °F - 62.6 °F 94% 30.11 in 3.0 mi Calm Calm - N/A   Clear
7:53 AM 66.0 °F - 64.9 °F 96% 30.09 in 5.0 mi Calm Calm - N/A   Clear
8:53 AM 72.0 °F - 68.0 °F 87% 30.09 in 9.0 mi Calm Calm - N/A   Clear
9:53 AM 79.0 °F - 70.0 °F 74% 30.09 in 10.0 mi Calm Calm - N/A   Clear
10:53 AM 84.0 °F 89.0 °F 71.1 °F 65% 30.09 in 10.0 mi Calm Calm - N/A   Clear
11:53 AM 87.1 °F 89.2 °F 66.0 °F 49% 30.10 in 10.0 mi Variable 3.5 mph - N/A   Clear
12:53 PM 88.0 °F 89.6 °F 64.9 °F 46% 30.08 in 10.0 mi Calm Calm - N/A   Clear
1:53 PM 91.0 °F 93.0 °F 64.9 °F 42% 30.06 in 10.0 mi SE 4.6 mph - N/A   Mostly Cloudy
2:53 PM 90.0 °F 90.6 °F 63.0 °F 40% 30.05 in 2.0 mi Calm Calm - N/A   Haze
3:04 PM 89.6 °F 91.1 °F 64.4 °F 43% 30.08 in 10.0 mi SSE 3.5 mph - N/A   Clear
3:53 PM 87.1 °F 89.9 °F 66.9 °F 51% 30.04 in 10.0 mi Calm Calm - N/A   Partly Cloudy
4:53 PM 89.1 °F 89.3 °F 62.1 °F 40% 30.02 in 10.0 mi Variable 3.5 mph - N/A   Clear
5:53 PM 89.1 °F 91.3 °F 66.0 °F 46% 30.02 in 10.0 mi Calm Calm - N/A   Clear
6:53 PM 82.9 °F 86.5 °F 69.1 °F 63% 30.02 in 10.0 mi Calm Calm - N/A   Clear
7:53 PM 77.0 °F - 71.1 °F 82% 30.02 in 10.0 mi Calm Calm - N/A   Clear
8:53 PM 73.9 °F - 70.0 °F 87% 30.03 in 10.0 mi Calm Calm - N/A   Clear
9:53 PM 72.0 °F - 70.0 °F 93% 30.05 in 8.0 mi Calm Calm - N/A   Clear
10:53 PM 71.1 °F - 69.1 °F 93% 30.04 in 6.0 mi Calm Calm - N/A   Clear
11:53 PM 70.0 °F - 68.0 °F 93% 30.04 in 5.0 mi Calm Calm - N/A   Clear